Total_Precipitation_Accumulation
1.01 1.06 1.03 1.07 1.04 1.25 1.50 1.58 1.54 1.70 1.72 1.58 1.37 1.19 1.09 0.96 0.81 0.85 0.95 0.89 0.79 0.88 1.10 1.17 1.09 1.04 0.98 0.83 0.75 0.75 0.76 0.72 0.68 0.54 0.42 0.39 0.45 0.50 0.46 0.39 0.34 0.30 0.30
1.50 1.57 1.45 1.39 1.30 1.36 1.54 1.69 1.74 2.13 2.02 1.94 1.58 1.39 1.30 1.21 1.06 0.97 1.00 1.08 0.92 0.81 0.88 1.07 1.20 1.15 1.10 0.99 0.87 0.79 0.74 0.71 0.63 0.47 0.37 0.33 0.40 0.50 0.50 0.45 0.37 0.30 0.23
1.77 1.83 1.80 1.67 1.67 1.65 1.74 1.74 1.92 2.19 1.96 1.87 1.60 1.51 1.39 1.26 1.13 1.12 1.17 1.21 1.09 0.92 0.76 0.83 1.02 1.12 1.18 1.20 1.14 0.98 0.78 0.66 0.60 0.47 0.36 0.33 0.37 0.45 0.46 0.48 0.44 0.33 0.22
1.96 2.04 1.84 1.73 1.98 2.02 2.03 2.06 2.12 2.15 2.05 2.00 1.79 1.50 1.34 1.28 1.01 1.02 1.03 0.97 0.99 0.84 0.82 0.91 0.99 1.05 1.18 1.27 1.30 1.24 1.05 0.82 0.69 0.58 0.46 0.39 0.43 0.47 0.43 0.43 0.42 0.34 0.25
1.87 2.00 1.81 1.86 2.10 2.17 2.14 1.97 2.24 2.21 2.14 2.03 1.70 1.42 1.19 1.03 0.90 0.80 0.77 0.67 0.71 0.68 0.68 0.79 0.86 0.88 1.09 1.32 1.37 1.39 1.34 1.16 0.95 0.81 0.73 0.62 0.55 0.50 0.46 0.44 0.41 0.36 0.28
1.91 2.05 1.91 1.99 2.15 2.22 2.14 2.15 2.25 2.28 2.13 2.06 1.64 1.31 1.10 0.85 0.77 0.70 0.59 0.60 0.58 0.51 0.49 0.61 0.76 0.68 0.90 1.13 1.19 1.33 1.43 1.36 1.18 1.05 0.99 0.92 0.85 0.72 0.57 0.52 0.52 0.47 0.38
1.97 2.14 2.03 2.15 2.17 2.02 2.01 2.17 2.29 2.14 1.93 2.08 1.83 1.25 0.89 0.71 0.68 0.63 0.59 0.64 0.60 0.54 0.53 0.65 0.73 0.71 0.69 0.78 0.82 0.96 1.26 1.43 1.34 1.16 1.05 1.02 1.08 1.08 0.80 0.72 0.71 0.65 0.56
1.83 1.87 1.90 1.89 1.93 1.97 1.96 2.02 2.18 1.99 1.68 1.87 1.82 1.53 0.98 0.76 0.64 0.54 0.58 0.58 0.54 0.60 0.62 0.68 0.82 0.89 0.81 0.85 0.77 0.68 0.99 1.36 1.45 1.40 1.22 1.12 1.18 1.23 1.02 1.01 0.92 0.77 0.68
1.53 1.55 1.58 1.71 1.93 2.02 1.95 1.98 2.01 1.88 1.58 1.60 1.75 1.79 1.30 0.92 0.69 0.44 0.45 0.51 0.61 0.72 0.72 0.85 0.91 0.94 0.97 1.07 1.09 0.95 0.80 0.93 1.16 1.46 1.49 1.32 1.18 1.11 1.22 1.31 1.20 0.95 0.75
1.40 1.37 1.39 1.44 1.51 1.60 1.62 1.56 1.68 1.78 1.72 1.54 1.65 1.69 1.54 1.36 1.16 0.73 0.54 0.54 0.67 0.73 0.81 0.81 0.78 0.80 1.00 1.22 1.30 1.17 1.01 0.88 0.88 1.22 1.49 1.53 1.30 1.13 1.24 1.44 1.59 1.35 0.92
1.27 1.26 1.21 1.20 1.17 1.23 1.35 1.38 1.48 1.53 1.57 1.54 1.57 1.64 1.60 1.56 1.51 1.30 0.91 0.86 0.84 0.71 0.75 0.79 0.77 0.80 0.98 1.15 1.20 1.11 1.14 1.02 0.95 0.97 1.08 1.24 1.26 1.20 1.19 1.40 1.79 1.87 1.53
1.03 1.01 1.05 1.06 1.05 1.10 1.19 1.27 1.34 1.30 1.38 1.44 1.47 1.56 1.61 1.59 1.61 1.61 1.28 1.12 1.03 0.86 0.86 0.81 0.78 0.81 0.97 1.06 0.95 1.01 0.95 0.84 0.82 0.86 0.88 0.98 1.00 1.03 1.10 1.30 1.67 1.99 2.05
0.74 0.76 0.77 0.86 0.90 0.99 1.03 1.03 1.11 1.21 1.34 1.41 1.42 1.49 1.53 1.51 1.50 1.56 1.49 1.25 1.13 1.00 1.01 0.94 0.82 0.82 0.81 1.02 0.94 0.79 0.63 0.53 0.51 0.54 0.54 0.61 0.71 0.78 0.89 1.03 1.26 1.55 1.84
0.56 0.61 0.70 0.82 0.91 0.95 0.96 0.98 0.98 1.05 1.19 1.32 1.41 1.57 1.49 1.40 1.43 1.50 1.58 1.53 1.33 1.18 1.18 1.03 0.91 0.82 0.81 0.89 0.84 0.68 0.55 0.43 0.38 0.35 0.32 0.33 0.37 0.44 0.56 0.72 0.88 1.02 1.17
0.54 0.57 0.65 0.76 0.89 1.00 1.03 1.01 1.02 1.11 1.25 1.33 1.47 1.56 1.48 1.45 1.47 1.48 1.59 1.66 1.59 1.40 1.23 1.14 1.02 0.87 0.81 0.76 0.71 0.70 0.65 0.54 0.40 0.31 0.26 0.24 0.26 0.28 0.33 0.45 0.59 0.72 0.81
0.49 0.54 0.62 0.69 0.72 0.78 0.84 0.84 0.93 1.05 1.19 1.26 1.27 1.33 1.38 1.42 1.55 1.52 1.58 1.66 1.69 1.59 1.30 1.23 1.14 0.92 0.94 0.70 0.66 0.66 0.62 0.53 0.39 0.31 0.27 0.25 0.25 0.26 0.28 0.31 0.40 0.52 0.63
0.44 0.48 0.54 0.54 0.55 0.56 0.58 0.63 0.75 0.89 0.96 0.97 0.95 0.99 1.03 1.12 1.25 1.30 1.39 1.46 1.58 1.62 1.35 1.33 1.45 1.33 1.28 1.03 0.83 0.74 0.56 0.48 0.42 0.35 0.29 0.24 0.23 0.25 0.29 0.30 0.30 0.35 0.43
0.38 0.41 0.43 0.45 0.44 0.46 0.53 0.59 0.67 0.74 0.82 0.81 0.80 0.81 0.79 0.87 1.01 1.08 1.17 1.29 1.46 1.64 1.50 1.43 1.59 1.63 1.54 1.33 1.17 0.96 0.69 0.51 0.50 0.45 0.33 0.27 0.23 0.24 0.29 0.31 0.29 0.29 0.33
0.31 0.34 0.39 0.42 0.46 0.53 0.63 0.74 0.80 0.77 0.69 0.63 0.58 0.57 0.58 0.64 0.75 0.87 1.00 1.08 1.21 1.54 1.60 1.47 1.53 1.77 1.76 1.57 1.50 1.22 1.00 0.87 0.61 0.54 0.40 0.30 0.28 0.27 0.29 0.34 0.33 0.31 0.30
0.34 0.40 0.46 0.52 0.60 0.63 0.66 0.70 0.72 0.74 0.69 0.58 0.47 0.41 0.40 0.49 0.61 0.71 0.81 0.91 1.04 1.21 1.41 1.49 1.51 1.72 1.81 1.70 1.76 1.53 1.28 1.09 0.87 0.65 0.54 0.37 0.31 0.33 0.34 0.35 0.37 0.38 0.38
0.29 0.42 0.51 0.56 0.65 0.63 0.57 0.57 0.57 0.52 0.53 0.53 0.47 0.37 0.33 0.37 0.44 0.55 0.61 0.71 0.85 0.99 1.12 1.29 1.42 1.58 1.79 1.77 1.64 1.60 1.43 1.26 1.14 1.00 0.95 0.66 0.40 0.34 0.35 0.37 0.41 0.47 0.52
0.27 0.35 0.39 0.44 0.50 0.45 0.39 0.37 0.38 0.40 0.43 0.45 0.45 0.40 0.35 0.31 0.32 0.37 0.43 0.50 0.58 0.67 0.84 1.04 1.18 1.32 1.52 1.68 1.66 1.69 1.62 1.38 1.24 1.14 1.17 1.18 0.88 0.66 0.54 0.38 0.36 0.44 0.55
0.32 0.37 0.36 0.36 0.39 0.42 0.35 0.29 0.26 0.29 0.36 0.39 0.41 0.39 0.30 0.25 0.26 0.25 0.27 0.33 0.41 0.43 0.50 0.71 0.87 0.92 1.05 1.27 1.53 1.69 1.77 1.63 1.45 1.38 1.32 1.44 1.50 1.26 0.85 0.59 0.47 0.39 0.47
0.44 0.46 0.40 0.39 0.40 0.39 0.33 0.26 0.23 0.24 0.30 0.35 0.38 0.35 0.32 0.27 0.27 0.28 0.31 0.31 0.29 0.29 0.30 0.36 0.47 0.65 0.79 0.95 1.22 1.43 1.68 1.89 1.78 1.68 1.56 1.62 1.73 1.93 1.52 1.00 0.76 0.57 0.53
0.49 0.49 0.44 0.42 0.43 0.41 0.33 0.25 0.25 0.31 0.36 0.37 0.39 0.36 0.33 0.29 0.27 0.24 0.30 0.33 0.30 0.27 0.26 0.31 0.37 0.51 0.69 0.80 1.00 1.26 1.49 1.62 1.72 1.78 1.73 1.74 1.76 1.89 2.21 1.82 1.16 0.76 0.57
0.52 0.48 0.46 0.49 0.51 0.50 0.40 0.28 0.26 0.31 0.39 0.42 0.50 0.48 0.36 0.29 0.28 0.24 0.26 0.30 0.29 0.26 0.26 0.26 0.31 0.38 0.48 0.61 0.77 0.93 1.11 1.26 1.31 1.45 1.40 1.29 1.32 1.43 1.90 2.24 1.90 1.30 0.86